Regional Weather Roundup
Issued by NWS

Home | Current Version | Previous Version | Text Only | Print | Product List | Glossary Off
Versions: 1 2 3 4 5 6 7 8 9 10 11 12 13 14 15 16 17 18 19 20 21 22 23 24 25 26 27 28 29 30 31 32 33 34 35 36 37 38 39 40 41 42 43 44 45 46 47 48 49 50

000
ASUS43 KIND 121959
RWRIN

WEATHER ROUNDUP FOR INDIANA
NATIONAL WEATHER SERVICE INDIANAPOLIS IN
300 PM EST FRI FEB 12 2016

NOTE: "FAIR" INDICATES FEW OR NO CLOUDS BELOW 12,000 FEET WITH NO
SIGNIFICANT WEATHER AND/OR OBSTRUCTIONS TO VISIBILITY.

* - STATION DOES NOT REPORT WEATHER SUCH AS PRECIPITATION OR FOG.

+ - STATION NOT QUALITY CONTROLLED BY THE NATIONAL WEATHER SERVICE.
    USE DATA WITH CAUTION...ESPECIALLY DEWPOINT AND RELATIVE
    HUMIDITY OBSERVATIONS.

INZ001>003-010>013-019-020-122100-
NORTHWEST INDIANA

CITY           SKY/WX    TMP DP  RH WIND       PRES   REMARKS
GARY /AIRPORT/ MOSUNNY   27   5  39 MISG      30.15R
RENSSELAER +   CLOUDY    25   9  50 W21G29    30.14S WCI  10

$$

LMZ046-743>745-122100-
SOUTHERN LAKE MICHIGAN

STATION/POSITION TIME  TEMP    WIND        PRES    WAVE
                       AIR SEA DIR/SP/G            HT
                 (UTC) (F)     (DEG/KT/KT) (MB)    (FT)
BURNS HARBOR     1900   22     310/ 14/ 23 1020.7S
MICHIGAN CITY    1900   21     260/ 26/ 30   N/A

$$

INZ004-005-014>016-021>024-122100-
NORTH CENTRAL INDIANA

CITY           SKY/WX    TMP DP  RH WIND       PRES   REMARKS
GOSHEN         LGT SNOW  20  12  71 NW17      30.06S WCI   5
PERU/GRISSOM   LGT SNOW  25  18  74 NW18      30.06S WCI  11
SOUTH BEND     LGT SNOW  18  11  74 NW21G31   30.09S WCI   1

$$

INZ006>009-017-018-025>027-122100-
NORTHEAST INDIANA

CITY           SKY/WX    TMP DP  RH WIND       PRES   REMARKS
ANGOLA *+      CLOUDY    19  16  86 NW17      30.00R WCI   4
FORT WAYNE     LGT SNOW  23  16  74 W16G23    30.04F WCI  10

$$

INZ028-029-035-036-043>045-051>053-122100-
WEST CENTRAL INDIANA

CITY           SKY/WX    TMP DP  RH WIND       PRES   REMARKS
GREENCASTLE +  LGT SNOW  25  16  68 W8        30.15S WCI  16
LAFAYETTE      LGT SNOW  24  19  81 NW15G24   30.14S WCI  11
TERRE HAUTE    FLURRIES  26  19  74 NW15G21   30.19S WCI  14

$$

INZ030>032-037>040-046>048-054>057-064-065-122100-
CENTRAL INDIANA

CITY           SKY/WX    TMP DP  RH WIND       PRES   REMARKS
ANDERSON       LGT SNOW  25  18  74 W12G23    30.09F WCI  14
COLUMBUS       CLOUDY    28  19  69 W14       30.13F WCI  17
GREENWOOD *+   CLOUDY    27  21  80 W13G21    30.12F WCI  16
INDIANAPOLIS   LGT SNOW  26  18  71 W18G24    30.11F WCI  13
-EAGLE CREEK   LGT SNOW  25  19  78 W16G22    30.11F WCI  12
KOKOMO *+      CLOUDY    25  18  74 NW24      30.08S WCI   9
MT COMFORT *+  CLOUDY    25  18  74 W13       30.10F WCI  13
SHELBYVILLE    FLURRIES  27  17  66 W18       30.10F WCI  14

$$

INZ033-034-041-042-049-050-058-059-122100-
EAST CENTRAL INDIANA

CITY           SKY/WX    TMP DP  RH WIND       PRES   REMARKS
MUNCIE         LGT SNOW  25  18  74 W13G23    30.06F WCI  14

$$

INZ060-061-067>069-081>083-085>088-122100-
SOUTHWEST INDIANA

CITY           SKY/WX    TMP DP  RH WIND       PRES   REMARKS
EVANSVILLE     CLOUDY    33  23  66 W10       30.23S WCI  25
HUNTINGBURG *+ CLOUDY    30  21  69 NW12      30.20S WCI  21

$$

INZ062-063-066-070>080-084-089>092-122100-
SOUTH CENTRAL AND SOUTHEAST INDIANA

CITY           SKY/WX    TMP DP  RH WIND       PRES   REMARKS
BLOOMINGTON    FLURRIES  26  19  74 NW14G23   30.15S WCI  14
MADISON *+     CLOUDY    30  19  64 W12G20    30.13F WCI  21
SEYMOUR +      CLOUDY    32  18  55 W13G21    30.14S WCI  22

$$




USA.gov is the U.S. government's official web portal to all federal, state and local government web resources and services.